When you browse on this site, cookies collect data to enhance your experience and personalize the content and advertising you see.
Visit our Privacy Policy to learn more. By continuing to use the site, you agree to this use of cookies and data.
  • In Hungary
  • List of Countries
  • For 7 days
  • Water Temperature
  • Weather Map
  • News
  • Weather Widgets
  • user-avatar
    Login

    Hourly Weather Namwera

    Today, 11 December, Wednesday

    Time Temperature Precipitation Wind Pressure Humidity
    00:00 +22°C° 0.2 mm 0 mps 683 mmHg 82%
    01:00 +22°C° 0.2 mm 0 mps 682 mmHg 84%
    02:00 +21°C° 0 mm 0 mps 682 mmHg 84%
    03:00 +21°C° 0.3 mm 0 mps 682 mmHg 85%
    04:00 +21°C° 0.3 mm 0 mps 682 mmHg 86%
    05:00 +21°C° 0.3 mm 0 mps 682 mmHg 87%
    06:00 +24°C° 0.3 mm 1 mps 683 mmHg 83%
    07:00 +25°C° 0.3 mm 1 mps 684 mmHg 79%
    08:00 +27°C° 0 mm 2 mps 684 mmHg 76%
    09:00 +28°C° 0.5 mm 2 mps 684 mmHg 69%
    10:00 +30°C° 0.5 mm 2 mps 684 mmHg 63%
    11:00 +31°C° 0.5 mm 2 mps 683 mmHg 56%
    12:00 +31°C° 0.6 mm 2 mps 683 mmHg 57%
    13:00 +31°C° 0.6 mm 2 mps 682 mmHg 58%
    14:00 +31°C° 0.6 mm 2 mps 682 mmHg 59%
    15:00 +30°C° 0.5 mm 2 mps 682 mmHg 64%
    16:00 +29°C° 0.5 mm 2 mps 681 mmHg 68%
    17:00 +28°C° 0.5 mm 1 mps 681 mmHg 72%
    18:00 +27°C° 0.1 mm 1 mps 682 mmHg 76%
    19:00 +26°C° 0.1 mm 1 mps 682 mmHg 80%
    20:00 +25°C° 0.1 mm 1 mps 682 mmHg 83%
    21:00 +24°C° 0.7 mm 1 mps 683 mmHg 86%
    22:00 +24°C° 0.7 mm 1 mps 683 mmHg 88%
    23:00 +24°C° 0.7 mm 1 mps 683 mmHg 90%

    Tomorrow, 12 December, Thursday

    Time Temperature Precipitation Wind Pressure Humidity
    00:00 +23°C° 0.1 mm 1 mps 682 mmHg 89%
    01:00 +23°C° 0.1 mm 1 mps 682 mmHg 89%
    02:00 +23°C° 0.1 mm 1 mps 682 mmHg 88%
    03:00 +23°C° 0 mm 1 mps 682 mmHg 89%
    04:00 +23°C° 0 mm 1 mps 682 mmHg 90%
    05:00 +23°C° 0 mm 1 mps 682 mmHg 90%
    06:00 +24°C° 0 mm 1 mps 683 mmHg 86%
    07:00 +26°C° 0 mm 1 mps 684 mmHg 81%
    08:00 +27°C° 0 mm 1 mps 685 mmHg 76%
    09:00 +28°C° 0.3 mm 1 mps 684 mmHg 71%
    10:00 +29°C° 0.3 mm 2 mps 684 mmHg 66%
    11:00 +30°C° 0.3 mm 2 mps 683 mmHg 61%
    12:00 +30°C° 0 mm 2 mps 683 mmHg 59%
    13:00 +31°C° 0 mm 2 mps 682 mmHg 56%
    14:00 +31°C° 0 mm 2 mps 682 mmHg 54%
    15:00 +30°C° 0 mm 2 mps 682 mmHg 59%
    16:00 +29°C° 0 mm 2 mps 682 mmHg 63%
    17:00 +29°C° 0 mm 2 mps 681 mmHg 67%
    18:00 +27°C° 0.1 mm 1 mps 682 mmHg 72%
    19:00 +26°C° 0.1 mm 1 mps 683 mmHg 77%
    20:00 +25°C° 0.1 mm 1 mps 683 mmHg 82%
    21:00 +24°C° 0.5 mm 1 mps 683 mmHg 83%
    22:00 +24°C° 0.5 mm 1 mps 683 mmHg 84%
    23:00 +24°C° 0.5 mm 1 mps 683 mmHg 85%

    Day after tomorrow, 13 December, Friday

    Time Temperature Precipitation Wind Pressure Humidity
    00:00 +23°C° 0.7 mm 1 mps 683 mmHg 86%
    01:00 +23°C° 0.7 mm 1 mps 683 mmHg 87%
    02:00 +23°C° 0.7 mm 1 mps 683 mmHg 88%
    03:00 +23°C° 0.1 mm 1 mps 683 mmHg 88%
    04:00 +22°C° 0.1 mm 1 mps 683 mmHg 89%
    05:00 +22°C° 0.1 mm 1 mps 683 mmHg 89%
    06:00 +24°C° 0.1 mm 1 mps 684 mmHg 84%
    07:00 +25°C° 0.1 mm 1 mps 685 mmHg 80%
    08:00 +27°C° 0.1 mm 1 mps 685 mmHg 75%
    09:00 +28°C° 0.3 mm 1 mps 685 mmHg 69%
    10:00 +30°C° 0.3 mm 2 mps 685 mmHg 63%
    11:00 +31°C° 0.3 mm 2 mps 685 mmHg 58%
    12:00 +31°C° 0.9 mm 2 mps 685 mmHg 59%
    13:00 +30°C° 0.9 mm 2 mps 684 mmHg 60%
    14:00 +30°C° 0.9 mm 2 mps 684 mmHg 61%
    15:00 +29°C° 0.3 mm 2 mps 683 mmHg 64%
    16:00 +29°C° 0.3 mm 1 mps 683 mmHg 67%
    17:00 +28°C° 0.3 mm 1 mps 683 mmHg 70%
    18:00 +27°C° 0.2 mm 1 mps 683 mmHg 73%
    19:00 +26°C° 0.2 mm 1 mps 684 mmHg 77%
    20:00 +25°C° 0.2 mm 1 mps 684 mmHg 80%
    21:00 +24°C° 0.7 mm 1 mps 684 mmHg 83%
    22:00 +24°C° 0.7 mm 1 mps 684 mmHg 86%
    23:00 +23°C° 0.7 mm 1 mps 684 mmHg 89%

    14 December, Saturday

    Time Temperature Precipitation Wind Pressure Humidity
    00:00 +23°C° 0.5 mm 1 mps 684 mmHg 89%
    01:00 +23°C° 0.5 mm 1 mps 684 mmHg 90%
    02:00 +23°C° 0.5 mm 1 mps 683 mmHg 90%
    03:00 +23°C° 1 mm 1 mps 684 mmHg 91%
    04:00 +23°C° 1 mm 1 mps 684 mmHg 91%
    05:00 +22°C° 1 mm 1 mps 684 mmHg 92%
    06:00 +23°C° 0.7 mm 1 mps 685 mmHg 89%
    07:00 +24°C° 0.7 mm 1 mps 685 mmHg 85%
    08:00 +25°C° 0.7 mm 1 mps 686 mmHg 82%
    09:00 +26°C° 1.7 mm 1 mps 686 mmHg 79%
    10:00 +27°C° 1.7 mm 1 mps 686 mmHg 75%
    11:00 +29°C° 1.7 mm 1 mps 686 mmHg 71%
    12:00 +28°C° 1.1 mm 2 mps 685 mmHg 72%
    13:00 +28°C° 1.1 mm 2 mps 684 mmHg 73%
    14:00 +27°C° 1.1 mm 2 mps 684 mmHg 75%
    15:00 +26°C° 0.3 mm 2 mps 684 mmHg 79%
    16:00 +25°C° 0.3 mm 2 mps 683 mmHg 83%
    17:00 +25°C° 0.3 mm 2 mps 683 mmHg 87%
    18:00 +24°C° 0 mm 1 mps 683 mmHg 86%
    19:00 +24°C° 0 mm 1 mps 684 mmHg 86%
    20:00 +23°C° 0 mm 1 mps 684 mmHg 85%
    21:00 +23°C° 0 mm 1 mps 684 mmHg 85%
    22:00 +23°C° 0 mm 1 mps 684 mmHg 84%
    23:00 +22°C° 0 mm 1 mps 684 mmHg 84%

    15 December, Sunday

    Time Temperature Precipitation Wind Pressure Humidity
    00:00 +22°C° 0.2 mm 1 mps 684 mmHg 84%
    01:00 +22°C° 0.2 mm 1 mps 684 mmHg 85%
    02:00 +22°C° 0.2 mm 1 mps 683 mmHg 85%
    03:00 +22°C° 0.6 mm 1 mps 683 mmHg 86%
    04:00 +22°C° 0.6 mm 1 mps 683 mmHg 87%
    05:00 +22°C° 0.6 mm 1 mps 684 mmHg 89%
    06:00 +22°C° 0.6 mm 1 mps 684 mmHg 89%
    07:00 +23°C° 0.6 mm 1 mps 684 mmHg 89%
    08:00 +23°C° 0.6 mm 1 mps 685 mmHg 89%
    09:00 +24°C° 0.6 mm 1 mps 685 mmHg 84%
    10:00 +24°C° 0.6 mm 0 mps 685 mmHg 79%
    11:00 +25°C° 0.6 mm 0 mps 685 mmHg 75%
    12:00 +27°C° 0.2 mm 1 mps 684 mmHg 76%
    13:00 +26°C° 0.2 mm 1 mps 683 mmHg 78%
    14:00 +26°C° 0.2 mm 1 mps 683 mmHg 79%
    15:00 +26°C° 0 mm 1 mps 683 mmHg 80%
    16:00 +25°C° 0 mm 1 mps 683 mmHg 81%
    17:00 +25°C° 0 mm 1 mps 683 mmHg 81%
    18:00 +25°C° 0 mm 1 mps 683 mmHg 84%
    19:00 +24°C° 0 mm 1 mps 683 mmHg 86%
    20:00 +23°C° 0 mm 1 mps 683 mmHg 88%
    21:00 +23°C° 0 mm 1 mps 683 mmHg 88%
    22:00 +23°C° 0 mm 1 mps 683 mmHg 88%
    23:00 +23°C° 0 mm 1 mps 683 mmHg 88%

    16 December, Monday

    Time Temperature Precipitation Wind Pressure Humidity
    00:00 +22°C° 0 mm 1 mps 683 mmHg 88%
    01:00 +22°C° 0 mm 1 mps 683 mmHg 87%
    02:00 +20°C° 0 mm 0 mps 682 mmHg 87%
    03:00 +22°C° 0 mm 1 mps 682 mmHg 87%
    04:00 +22°C° 0 mm 1 mps 683 mmHg 87%
    05:00 +22°C° 0 mm 1 mps 683 mmHg 87%
    06:00 +23°C° 0.1 mm 1 mps 683 mmHg 83%
    07:00 +25°C° 0.1 mm 1 mps 684 mmHg 79%
    08:00 +26°C° 0.1 mm 1 mps 684 mmHg 76%
    09:00 +27°C° 0.9 mm 1 mps 684 mmHg 71%
    10:00 +28°C° 0.9 mm 1 mps 684 mmHg 67%
    11:00 +29°C° 0.9 mm 1 mps 684 mmHg 62%
    12:00 +29°C° 1 mm 1 mps 683 mmHg 64%
    13:00 +29°C° 1 mm 2 mps 683 mmHg 66%
    14:00 +29°C° 1 mm 2 mps 682 mmHg 67%
    15:00 +27°C° 1.2 mm 2 mps 682 mmHg 74%
    16:00 +26°C° 1.2 mm 2 mps 682 mmHg 80%
    17:00 +24°C° 1.2 mm 2 mps 682 mmHg 86%
    18:00 +24°C° 0.8 mm 2 mps 682 mmHg 86%
    19:00 +23°C° 0.8 mm 2 mps 682 mmHg 87%
    20:00 +21°C° 0.8 mm 3 mps 683 mmHg 87%
    21:00 +21°C° 1.6 mm 3 mps 683 mmHg 89%
    22:00 +21°C° 1.6 mm 3 mps 683 mmHg 91%
    23:00 +21°C° 1.6 mm 3 mps 684 mmHg 94%
    Show more